Weather History for Ortonville, MN

Change the Weather History Date:

Wednesday, April 24, 2013

  Actual Average (KAQP) Record (KAQP)
Temperature  
Mean Temperature 35 °F -  
Max Temperature 42 °F 59 °F 82 °F (1998)
Min Temperature 28 °F 34 °F 21 °F (2005)
Degree Days  
Heating Degree Days 30    
Moisture  
Dew Point 26 °F    
Average Humidity 69    
Maximum Humidity 87    
Minimum Humidity 56    
Precipitation  
Precipitation 0.02 in - - ()
Sea Level Pressure  
Sea Level Pressure 29.98 in    
Wind  
Wind Speed 9 mph (West)    
Max Wind Speed 21 mph    
Max Gust Speed 26 mph    
Visibility 10 miles    
Events Rain , Snow    
Averages and records for this station are not official NWS values.
T = Trace of Precipitation, MM = Missing Value Source: NWS Daily Summary

Daily Weather History Graph

Daily Weather History Graph

Search for Another Location

Airport:

Trip Planner

Search our weather history database for the weather conditions in past years. The results will help you decide how hot, cold, wet, or windy it might be!

Date:

Astronomy

Apr. 24, 2013 Rise Set
Actual Time 6:24 AM CDT 8:23 PM CDT
Civil Twilight 5:53 AM CDT 8:55 PM CDT
Nautical Twilight 5:14 AM CDT 9:34 PM CDT
Astronomical Twilight 4:31 AM CDT 10:17 PM CDT
Moon 7:26 PM CDT (4/24) 5:32 AM CDT (4/24)
Length of Visible Light 15h 02m
Length of Day
13h 58m
Waxing Gibbous, 98% of the Moon is Illuminated
Apr 24
Waxing Gibbous
Apr 25
Full
May 2
Last Quarter
May 9
New
May 17
First Quarter

Hourly Weather History & Observations

Time (CDT) Temp. Windchill Dew Point Humidity Pressure Visibility Wind Dir Wind Speed Gust Speed Precip Events Conditions
12:14 AM 30.2 °F - 24.8 °F 80% 30.05 in 10.0 mi Calm Calm - N/A   Clear
12:34 AM 30.2 °F 26.7 °F 24.8 °F 80% 30.05 in 10.0 mi South 3.5 mph - N/A   Clear
12:54 AM 30.2 °F 26.7 °F 24.8 °F 80% 30.04 in 10.0 mi SW 3.5 mph - N/A   Clear
1:14 AM 30.2 °F 26.7 °F 23.0 °F 75% 30.04 in 10.0 mi West 3.5 mph - N/A   Clear
1:34 AM 30.2 °F 26.7 °F 23.0 °F 75% 30.04 in 10.0 mi West 3.5 mph - N/A   Clear
1:54 AM 30.2 °F 26.7 °F 23.0 °F 75% 30.03 in 10.0 mi West 3.5 mph - N/A   Clear
2:13 AM 33.8 °F 26.4 °F 23.0 °F 65% 30.02 in 10.0 mi West 9.2 mph - N/A   Clear
2:34 AM 33.8 °F 26.4 °F 23.0 °F 65% 30.02 in 10.0 mi West 9.2 mph - N/A   Clear
2:54 AM 33.8 °F 26.4 °F 23.0 °F 65% 30.01 in 10.0 mi West 9.2 mph - N/A   Clear
3:13 AM 33.8 °F 27.0 °F 23.0 °F 65% 30.01 in 10.0 mi West 8.1 mph - N/A   Clear
3:34 AM 33.8 °F 26.4 °F 23.0 °F 65% 30.01 in 10.0 mi West 9.2 mph - N/A   Clear
3:53 AM 33.8 °F 27.7 °F 23.0 °F 65% 30.00 in 10.0 mi West 6.9 mph - N/A   Clear
4:14 AM 32.0 °F 24.2 °F 21.2 °F 64% 30.00 in 10.0 mi WSW 9.2 mph - N/A   Clear
4:34 AM 32.0 °F 23.6 °F 23.0 °F 69% 29.99 in 10.0 mi WSW 10.4 mph 16.1 mph N/A   Clear
5:00 AM 32.0 °F 24.2 °F 23.0 °F 69% 29.99 in 10.0 mi WSW 9.2 mph 16.1 mph N/A   Clear
5:34 AM 32.0 °F 24.8 °F 23.0 °F 69% 29.99 in 10.0 mi West 8.1 mph - N/A   Clear
5:53 AM 32.0 °F 24.8 °F 23.0 °F 69% 29.98 in 10.0 mi WSW 8.1 mph - N/A   Clear
6:14 AM 33.8 °F 27.7 °F 23.0 °F 65% 29.97 in 10.0 mi WSW 6.9 mph - N/A   Clear
6:34 AM 33.8 °F 25.8 °F 23.0 °F 65% 29.97 in 10.0 mi WSW 10.4 mph 19.6 mph N/A   Clear
6:53 AM 33.8 °F 24.8 °F 23.0 °F 65% 29.96 in 10.0 mi SW 12.7 mph 17.3 mph N/A   Clear
7:14 AM 33.8 °F 25.3 °F 23.0 °F 65% 29.96 in 10.0 mi SW 11.5 mph 16.1 mph N/A   Clear
7:34 AM 33.8 °F 25.3 °F 23.0 °F 65% 29.95 in 10.0 mi WSW 11.5 mph 17.3 mph N/A   Clear
7:54 AM 33.8 °F 25.8 °F 23.0 °F 65% 29.95 in 10.0 mi SW 10.4 mph - N/A   Clear
8:14 AM 35.6 °F 29.9 °F 23.0 °F 60% 29.95 in 10.0 mi SW 6.9 mph - N/A   Clear
8:33 AM 35.6 °F 28.0 °F 23.0 °F 60% 29.95 in 10.0 mi SW 10.4 mph - N/A   Scattered Clouds
8:54 AM 35.6 °F 26.6 °F 21.2 °F 56% 29.95 in 10.0 mi WSW 13.8 mph 20.7 mph N/A   Mostly Cloudy
9:14 AM 35.6 °F 25.9 °F 24.8 °F 65% 29.94 in 10.0 mi WSW 16.1 mph 19.6 mph N/A   Overcast
9:33 AM 37.4 °F 28.5 °F 26.6 °F 65% 29.92 in 10.0 mi WSW 15.0 mph 20.7 mph N/A   Overcast
9:54 AM 37.4 °F 28.9 °F 26.6 °F 65% 29.93 in 10.0 mi WSW 13.8 mph 20.7 mph N/A   Overcast
10:14 AM 39.2 °F 30.8 °F 28.4 °F 65% 29.92 in 10.0 mi WSW 15.0 mph 24.2 mph N/A   Scattered Clouds
10:33 AM 39.2 °F 29.3 °F 26.6 °F 61% 29.92 in 10.0 mi WSW 20.7 mph 25.3 mph N/A   Clear
10:54 AM 39.2 °F 30.2 °F 26.6 °F 61% 29.92 in 10.0 mi West 17.3 mph 26.5 mph N/A   Clear
11:14 AM 41.0 °F 31.9 °F 26.6 °F 57% 29.92 in 10.0 mi WSW 19.6 mph 25.3 mph N/A   Clear
11:34 AM 41.0 °F 33.1 °F 26.6 °F 57% 29.93 in 10.0 mi West 15.0 mph 23.0 mph N/A   Clear
11:54 AM 41.0 °F 32.5 °F 28.4 °F 61% 29.93 in 10.0 mi West 17.3 mph - N/A   Clear
12:14 PM 42.8 °F 35.8 °F 28.4 °F 57% 29.94 in 10.0 mi West 13.8 mph 23.0 mph N/A   Mostly Cloudy
12:34 PM 41.0 °F 33.5 °F 28.4 °F 61% 29.94 in 10.0 mi West 13.8 mph 19.6 mph N/A   Scattered Clouds
12:53 PM 39.2 °F 31.6 °F 28.4 °F 65% 29.93 in 10.0 mi West 12.7 mph 19.6 mph N/A   Clear
1:14 PM 39.2 °F 33.0 °F 28.4 °F 65% 29.93 in 10.0 mi West 9.2 mph 17.3 mph N/A   Clear
1:34 PM 41.0 °F 33.9 °F 28.4 °F 61% 29.93 in 10.0 mi West 12.7 mph - N/A   Clear
1:54 PM 39.2 °F 30.5 °F 28.4 °F 65% 29.94 in 10.0 mi West 16.1 mph - N/A   Mostly Cloudy
2:14 PM 37.4 °F 29.8 °F 30.2 °F 75% 29.96 in 4.0 mi WNW 11.5 mph - N/A Rain Light Rain
2:34 PM 35.6 °F 29.2 °F 32.0 °F 87% 29.95 in 4.0 mi West 8.1 mph - N/A Rain Light Rain
2:53 PM 35.6 °F 30.7 °F 32.0 °F 87% 29.96 in 10.0 mi SW 5.8 mph - N/A Rain Light Rain
3:14 PM 37.4 °F 31.4 °F 32.0 °F 81% 29.95 in 10.0 mi WSW 8.1 mph - N/A   Scattered Clouds
3:34 PM 39.2 °F 32.5 °F 33.8 °F 81% 29.95 in 10.0 mi West 10.4 mph - N/A   Mostly Cloudy
3:53 PM 41.0 °F 34.3 °F 33.8 °F 76% 29.95 in 10.0 mi West 11.5 mph - N/A   Mostly Cloudy
4:14 PM 41.0 °F 34.7 °F 32.0 °F 70% 29.94 in 10.0 mi West 10.4 mph - N/A   Mostly Cloudy
4:34 PM 42.8 °F 37.0 °F 32.0 °F 66% 29.93 in 10.0 mi WNW 10.4 mph 17.3 mph N/A   Scattered Clouds
4:53 PM 42.8 °F 36.6 °F 32.0 °F 66% 29.93 in 10.0 mi West 11.5 mph 17.3 mph N/A   Scattered Clouds
5:14 PM 42.8 °F 36.2 °F 32.0 °F 66% 29.94 in 10.0 mi West 12.7 mph - N/A   Clear
5:33 PM 41.0 °F 33.9 °F 30.2 °F 65% 29.94 in 10.0 mi West 12.7 mph - N/A   Clear
5:54 PM 41.0 °F 32.8 °F 30.2 °F 65% 29.95 in 10.0 mi West 16.1 mph 23.0 mph N/A   Clear
6:14 PM 37.4 °F 27.8 °F 32.0 °F 81% 29.95 in 10.0 mi West 17.3 mph 25.3 mph N/A   Light Drizzle
6:33 PM 33.8 °F 24.8 °F 30.2 °F 87% 29.97 in 1.8 mi WNW 12.7 mph 24.2 mph N/A Rain Heavy Rain
6:54 PM 33.8 °F 23.2 °F 30.2 °F 87% 29.98 in 1.0 mi NW 17.3 mph 21.9 mph 0.02 in Snow Light Snow
7:14 PM 33.8 °F 22.8 °F 30.2 °F 87% 29.99 in 10.0 mi NW 18.4 mph 26.5 mph N/A   Overcast
7:34 PM 33.8 °F 22.8 °F 28.4 °F 81% 29.99 in 10.0 mi NW 18.4 mph 26.5 mph N/A   Light Drizzle
7:54 PM 33.8 °F 24.8 °F 28.4 °F 81% 30.00 in 10.0 mi NW 12.7 mph 20.7 mph N/A   Mostly Cloudy
8:14 PM 33.8 °F 25.8 °F 28.4 °F 81% 30.01 in 10.0 mi NW 10.4 mph - N/A   Scattered Clouds
8:34 PM 33.8 °F 22.8 °F 26.6 °F 75% 30.01 in 10.0 mi NW 18.4 mph 26.5 mph N/A   Scattered Clouds
8:54 PM 32.0 °F 21.2 °F 21.2 °F 64% 30.02 in 10.0 mi NW 16.1 mph 24.2 mph N/A   Scattered Clouds
9:54 PM 30.2 °F 18.9 °F 21.2 °F 69% 30.06 in 10.0 mi NW 16.1 mph 20.7 mph N/A   Clear
10:14 PM 30.2 °F 20.8 °F 21.2 °F 69% 30.06 in 10.0 mi WNW 11.5 mph 19.6 mph N/A   Clear
10:34 PM 30.2 °F 21.3 °F 19.4 °F 64% 30.07 in 10.0 mi WNW 10.4 mph - N/A   Clear
10:53 PM 30.2 °F 21.3 °F 19.4 °F 64% 30.08 in 10.0 mi WNW 10.4 mph - N/A   Clear
11:14 PM 28.4 °F 18.0 °F 19.4 °F 69% 30.08 in 10.0 mi WNW 12.7 mph - N/A   Clear
11:34 PM 28.4 °F 18.0 °F 19.4 °F 69% 30.08 in 10.0 mi WNW 12.7 mph 18.4 mph N/A   Clear
11:53 PM 28.4 °F 19.7 °F 19.4 °F 69% 30.08 in 10.0 mi WNW 9.2 mph - N/A   Clear